Tel Aviv, Israel

6:54 AM IST on February 24, 2018 (GMT +0200)
Ben Gurion

Weather History for LLBG - February, 2013

Change the Weather History Date:

Sunday, February 10, 2013

  Actual Average Record
Temperature  
Mean Temperature 58 °F -  
Max Temperature 65 °F 64 °F 76 °F (2018)
Min Temperature 51 °F 49 °F 39 °F (1997)
Degree Days  
Heating Degree Days 7    
Growing Degree Days 8 (Base 50)    
Moisture  
Dew Point 51 °F    
Average Humidity 78    
Maximum Humidity 88    
Minimum Humidity 59    
Precipitation  
Precipitation 0.00 in - - ()
Sea Level Pressure  
Sea Level Pressure 30.02 in    
Wind  
Wind Speed 3 mph ()    
Max Wind Speed 12 mph    
Max Gust Speed -    
Visibility 4.9 miles    
Events      
Averages and records for this station are not official NWS values.
T = Trace of Precipitation, MM = Missing Value Source: Averaged Metar Reports

Daily Weather History Graph

Daily Weather History Graph

Search for Another Location

Airport or City:

Trip Planner

Search our weather history database for the weather conditions in past years. The results will help you decide how hot, cold, wet, or windy it might be!

Date:

Astronomy

Feb. 10, 2013 Rise Set
Actual Time 6:27 AM IST 5:22 PM IST
Civil Twilight 6:02 AM IST 5:47 PM IST
Nautical Twilight 5:33 AM IST 6:16 PM IST
Astronomical Twilight 5:04 AM IST 6:45 PM IST
Moon 6:07 AM IST (2/10) 5:45 PM IST (2/10)
Length of Visible Light 11h 45m
Length of Day
10h 55m
New Moon, 0% of the Moon is Illuminated
Feb 10
New Moon
Feb 17
First Quarter
Feb 25
Full
Mar 4
Last Quarter
Mar 11
New

Hourly Weather History & Observations

Time (IST) Temp. Dew Point Humidity Pressure Visibility Wind Dir Wind Speed Gust Speed Precip Events Conditions
2:00 AM 53 °F 47 °F 75% 30.06 in 6 mi SE 3.5 mph - -  
3:20 AM 53.6 °F 48.2 °F 82% 30.04 in 5.0 mi Variable 2.3 mph - N/A   Mostly Cloudy
3:35 AM 53.6 °F 48.2 °F 82% 30.04 in 3.7 mi Variable 3.5 mph - N/A   Mostly Cloudy
5:05 AM 53.6 °F 50.0 °F 88% 30.04 in 3.7 mi Variable 3.5 mph - N/A   Scattered Clouds
5:20 AM 53.6 °F 50.0 °F 88% 30.04 in 3.7 mi Variable 1.2 mph - N/A   Scattered Clouds
5:35 AM 51.8 °F 48.2 °F 88% 30.04 in 3.7 mi Variable 1.2 mph - N/A   Mostly Cloudy
5:50 AM 51.8 °F 48.2 °F 88% 30.04 in 3.7 mi Variable 1.2 mph - N/A   Mostly Cloudy
6:05 AM 51.8 °F 48.2 °F 88% 30.04 in 4.3 mi Variable 2.3 mph - N/A   Mostly Cloudy
6:20 AM 51.8 °F 46.4 °F 82% 30.04 in 2.2 mi Variable 1.2 mph - N/A   Haze
8:00 AM 54 °F 47 °F 69% 30.06 in 2 mi 3.5 mph - -  
2:00 PM 65 °F 54 °F 59% 29.98 in 4 mi WNW 11.5 mph - -  
7:20 PM 62.6 °F 53.6 °F 72% 29.98 in 6.2 mi NW 6.9 mph - N/A   Mostly Cloudy
7:50 PM 62.6 °F 53.6 °F 72% 29.98 in 6.2 mi NNW 4.6 mph - N/A   Mostly Cloudy
8:00 PM 62 °F 53 °F 64% 29.98 in 6 mi NNW 4.6 mph - -  
8:20 PM 60.8 °F 51.8 °F 72% 29.98 in 6.2 mi Variable 3.5 mph - N/A   Mostly Cloudy
8:50 PM 60.8 °F 53.6 °F 77% 30.01 in 6.2 mi Variable 3.5 mph - N/A   Mostly Cloudy
9:20 PM 59.0 °F 51.8 °F 77% 30.01 in 6.2 mi Variable 2.3 mph - N/A   Mostly Cloudy
9:50 PM 60.8 °F 53.6 °F 77% 30.01 in 6.2 mi Variable 2.3 mph - N/A   Mostly Cloudy
10:20 PM 59.0 °F 51.8 °F 77% 30.01 in 6.2 mi Variable 2.3 mph - N/A   Scattered Clouds
10:50 PM 59.0 °F 53.6 °F 82% 30.01 in 6.2 mi Variable 2.3 mph - N/A   Mostly Cloudy